Regional Weather Roundup
Issued by NWS

Home | Current Version | Previous Version | Graphics & Text | Print | Product List | Glossary Off
Versions: 1 2 3 4 5 6 7 8 9 10 11 12 13 14 15 16 17 18 19 20 21 22 23 24 25 26 27 28 29 30 31 32 33 34 35 36 37 38 39 40 41 42 43 44 45 46 47 48 49 50

000
ASUS43 KDMX 171006
RWRIA

WEATHER ROUNDUP FOR IOWA
NATIONAL WEATHER SERVICE DES MOINES IA
400 AM CST FRI NOV 17 2017

NOTE: "FAIR" INDICATES FEW OR NO CLOUDS BELOW 12,000 FEET WITH NO
SIGNIFICANT WEATHER AND/OR OBSTRUCTIONS TO VISIBILITY.

* - THESE STATIONS ARE NOT NWS STATIONS...THUS NOT UNDER NWS
QUALITY CONTROL.  THEY ALSO DO NOT REPORT WEATHER SUCH
AS PRECIPITATION OR FOG.

IAZ001>003-012>014-020>022-031>034-043>046-171100-
   NORTHWEST IOWA

CITY           SKY/WX    TMP DP  RH WIND       PRES   REMARKS
CARROLL *      CLOUDY    43  32  65 SE12      29.76F
CHEROKEE *     CLOUDY    43  33  66 S14G24    29.70F
DENISON *      CLOUDY    45  34  65 S16G26    29.74F
LE MARS *      CLOUDY    46  34  61 S20       29.65F
ORANGE CITY *  MOCLDY    43  34  70 SE10G16   29.65F
SHELDON *      CLOUDY    43  32  65 S22G31    29.63F
SIOUX CITY     CLOUDY    42  32  67 SE14      29.66F
SPENCER        CLOUDY    38  30  73 SE22      29.71F WCI  27
STORM LAKE *   CLOUDY    41  32  70 SE17G24   29.71F
$$

IAZ055>058-069>071-079>083-090>094-171100-
   SOUTHWEST IOWA

CITY           SKY/WX    TMP DP  RH WIND       PRES   REMARKS
ATLANTIC *     CLOUDY    46  36  66 S15G21    29.76F
AUDUBON *      CLOUDY    45  34  65 S12G18    29.77F
CLARINDA *     CLOUDY    46  36  66 S7G14       N/A
COUNCIL BLFS * CLOUDY    46  37  71 S15       29.72F
CRESTON *      CLOUDY    43  32  65 S16G22    29.82F
HARLAN  *      CLOUDY    46  36  66 S16       29.78F
LAMONI         CLOUDY    43  32  65 S12G20    29.85F
RED OAK *      CLOUDY    48  37  66 S14G20    29.76F
SHENANDOAH *   CLOUDY    48  36  61 SE13      29.76F
$$

IAZ047>049-059>061-072>074-084-171100-
   CENTRAL IOWA

CITY           SKY/WX    TMP DP  RH WIND       PRES   REMARKS
AMES           CLOUDY    37  32  82 SE15      29.85F WCI  28
ANKENY *       CLOUDY    37  30  75 SE10      29.86F WCI  30
BOONE *        CLOUDY    36  32  87 SE16      29.82F WCI  26
CHARITON *     CLOUDY    41  32  70 SE15G21   29.85F
DES MOINES     CLOUDY    42  30  62 SE12      29.85F
GRINNELL*      CLOUDY    34  32  90 SE16      29.92F WCI  24
KNOXVILLE *    CLOUDY    39  30  70 SE10G17   29.86F WCI  32
MARSHALLTOWN   CLOUDY    35  31  85 SE21      29.89F WCI  24
NEWTON *       CLOUDY    36  32  87 SE16      29.89F WCI  26
PELLA *        CLOUDY    37  31  78 SE10      29.91F WCI  30
PERRY *        CLOUDY    40  31  69 SE14      29.81F WCI  33
$$

IAZ004>006-015-016-023>025-035-036-171100-
   NORTH CENTRAL IOWA

CITY           SKY/WX    TMP DP  RH WIND       PRES   REMARKS
ALGONA *       CLOUDY    36  32  87 SE29G35   29.74F WCI  23
CLARION *      CLOUDY    36  34  93 SE21G30   29.81F WCI  24
ESTHERVILLE    CLOUDY    33  30  88 S21G28    29.72F WCI  21
FORT DODGE *   CLOUDY    37  30  75 SE10      29.79F WCI  30
MASON CITY     CLOUDY    32  29  88 SE23G29   29.86F WCI  19
FOREST CITY *  CLOUDY    34  32  93 SE20      29.82F WCI  22
WEBSTER CITY * CLOUDY    36  30  80 SE16G25   29.80F WCI  26
IOWA FALLS *   CLOUDY    35  32  88 SE14      29.89F WCI  26
$$

IAZ007>011-017>019-026>030-037>042-050>054-066-171100-
   NORTHEAST IOWA

CITY           SKY/WX    TMP DP  RH WIND       PRES   REMARKS
CEDAR RAPIDS   CLOUDY    33  30  88 SE18G24   29.98F WCI  22
CHARLES CITY * CLOUDY    34  34 100 SE17G23   29.91F WCI  23
CLINTON *      CLOUDY    31  29  92 SE16      30.09F WCI  20
DECORAH *      CLOUDY    32  30  93 SE15G23   29.94F WCI  22
DUBUQUE        CLOUDY    31  29  92 S12       30.04F WCI  22
MONTICELLO *   CLOUDY    32  30  93 SE14G22   30.01F WCI  22
OELWEIN *      CLOUDY    32  32 100 SE18G24   29.96F WCI  20
WATERLOO       CLOUDY    33  29  85 SE17G25   29.93F WCI  22
$$

IAZ064-065-067-068-078-171100-
   EAST CENTRAL IOWA

CITY           SKY/WX    TMP DP  RH WIND       PRES   REMARKS
DAVENPORT      CLOUDY    32  29  88 SE14G23   30.07F WCI  22
IOWA CITY      CLOUDY    35  31  85 SE14      30.02F WCI  26
MT. PLEASANT * CLOUDY    33  32  95 SE15      30.00F WCI  23
MUSCATINE *    CLOUDY    34  30  86 SE13G20   30.03F WCI  25
QUAD CITIES    CLOUDY    33  28  81 SE12G22   30.06F WCI  24
$$

IAZ062-063-075>077-085>089-095>099-171100-
   SOUTHEAST IOWA

CITY           SKY/WX    TMP DP  RH WIND       PRES   REMARKS
BURLINGTON     CLOUDY    33  31  92 SE13      30.02F WCI  24
FAIRFIELD *    MOCLDY    34  30  86 SE18      29.95F WCI  23
FORT MADISON * CLOUDY    34  32  93 SE12G18   30.02F WCI  25
KEOKUK *       CLOUDY    36  32  87 SE10G20   30.01F WCI  28
OSKALOOSA *    MOCLDY    34  32  90 SE14      29.92F WCI  25
OTTUMWA        CLOUDY    36  31  82 SE17      29.92F WCI  26
WASHINGTON *   CLOUDY    34  34 100 SE22G31   29.98F WCI  22
$$

ABBREVIATIONS USED IN REMARKS
   TC - TEMPERATURES IN CELSIUS
  WCI - WIND CHILL INDEX
   HX - HEAT INDEX
  VSB - VISIBILITY
$$





USA.gov is the U.S. government's official web portal to all federal, state and local government web resources and services.